www.pogodaiklimat.ru

Погода и климат >> Архив погоды >> Китай >> Хунань >> Чандэ


ПОГОДА в Чандэ

  • Прогноз погоды в Чандэ
  • Монитор погоды в Чандэ

АРХИВ ПОГОДЫ в Чандэ

Время (UTC), дата Ветер
(напр.,м/с)
 
Видим.   Явления Облачность Т
(С)
Тd
(С)
f
(%)
Тe
(С)
Тes
(С)
Комфортность P
(гПа)
Po
(гПа)
Тmin
(С)
Tmax
(С)
R
(мм)
R24
(мм)
S
(см)
03 15.09 С 3 30 км 9/9
[]
+25.9 +17.0 58 +30 +31 душно 1014.2 1010.2
06 15.09 В 1 28 км 9/9
[]
+29.3 +18.1 51 +34 +36 очень
душно
1011.5 994.2 +22.0
09 15.09 С 4 21 км 9/9
[]
+27.9 +18.9 58 +33 +33 очень
душно
1010.6 1006.6
12 15.09 С 2 10 км 10/10
[]
+25.0 +19.6 72 +30 +30 душно 1012.3 994.8
15 15.09 С 4 10 км н/о +22.7 +16.5 68 +27 +27 душно 1013.9 1009.8
18 15.09 С 3 18 км н/о +21.1 +15.9 72 +24 +24 комфорт 1013.6 996.2 +30.0
21 15.09 С 4 17 км н/о +20.5 +15.9 75 +24 +24 комфорт 1014.1 1010.0
00 16.09 СЗ 1 28 км 10/10
[]
+21.3 +16.1 72 +25 +25 комфорт 1015.2 997.6
03 16.09 С 3 20 км 9/9
[]
+24.0 +16.8 64 +28 +29 душно 1015.4 1011.3
06 16.09 С 2 19 км 9/9
[]
+25.3 +17.8 63 +30 +31 душно 1013.5 996.0 +20.4
09 16.09 С 3 24 км 9/9
[]
+24.1 +17.4 66 +28 +28 душно 1012.6 1008.5
12 16.09 С 1 30 км 10/10
[]
+23.0 +17.0 69 +28 +28 душно 1013.1 995.5
15 16.09 С 3 30 км н/о +22.3 +16.8 71 +27 +27 душно 1014.7 1010.6
18 16.09 С 2 27 км н/о +20.7 +16.9 79 +25 +25 комфорт 1014.5 996.9 +25.8
21 16.09 С 4 18 км н/о +19.9 +16.7 82 +23 +23 комфорт 1015.2 1011.1
00 17.09 С 2 13 км 10/10 2000 м
[]
+20.3 +17.1 82 +24 +24 комфорт 1016.8 999.1
03 17.09 С 1 14 км 10/10 2000 м
[]
+22.6 +17.7 74 +28 +28 душно 1017.3 1013.2
06 17.09 СЗ 3 15 км 9/9 2000 м
[]
+25.1 +18.3 66 +30 +31 душно 1015.4 997.8 +19.9
09 17.09 С 2 12 км 10/10 2000 м
[]
+23.3 +17.3 69 +29 +29 душно 1015.7 1011.6
12 17.09 С 5 11 км 10/10 2000 м
[]
+21.0 +16.4 75 +25 +25 комфорт 1018.0 1000.2
15 17.09 С 2 24 км н/о +20.1 +16.3 79 +23 +23 комфорт 1019.9 1015.7
18 17.09 С 2 30 км н/о +19.0 +15.3 79 +21 +21 комфорт 1019.5 1001.8 +25.5
21 17.09 С 2 30 км н/о +18.9 +15.0 78 +21 +21 комфорт 1019.8 1015.6
00 18.09 С 3 27 км 10/10 2000 м
[]
+19.2 +15.3 78 +21 +21 комфорт 1021.7 1003.9
03 18.09 С 3 17 км 10/10 2000 м
[]
+19.3 +16.2 82 +21 +21 комфорт 1022.9 1018.7
06 18.09 С 3 9000 м в посл. час дождь 10/10 2000 м
[]
+19.7 +16.2 80 +22 +22 комфорт 1021.3 1003.4 +18.9 0.0
09 18.09 С 5 10 км 10/10 2000 м
[]
+18.9 +16.1 84 +20 +20 1020.9 1016.7
12 18.09 С 4 10 км 10/10 2000 м
[]
+18.7 +15.9 84 +20 +20 1021.7 1003.8
15 18.09 С 3 7000 м дымка н/о +18.5 +15.9 85 +19 +19 1022.0 1017.8
18 18.09 З 4 7000 м дымка ?/? +18.2 +16.5 90 +18 +18 1020.8 1002.9 +19.9
21 18.09 З 2 н/о дымка н/о +18.1 +16.6 91 +19 +19 1020.4 1016.2
00 19.09 З 2 н/о дымка 9/9 2000 м
[]
+19.4 +17.4 88 +22 +22 комфорт 1020.9 1003.0
03 19.09 З 3 21 км 10/10 2000 м
[]
+25.5 +16.1 56 +29 +29 душно 1020.3 1016.2
06 19.09 СЗ 4 29 км 9/9 600 м
[]
+28.8 +15.7 45 +32 +33 душно 1017.2 999.6 +18.0
09 19.09 С 3 26 км 8/8 600 м
[]
+27.8 +15.5 47 +31 +31 душно 1015.9 1011.9
12 19.09 СВ 3 17 км 6/6
[]
+24.4 +15.9 59 +28 +28 душно 1017.0 999.3
15 19.09 С 2 11 км н/о +22.9 +16.9 69 +28 +28 душно 1017.4 1013.3
18 19.09 С 4 4600 м дымка ?/? +20.2 +16.8 81 +23 +23 комфорт 1016.9 999.4 +29.7
21 19.09 С 4 5000 м дымка н/о +20.2 +16.6 80 +23 +23 комфорт 1016.6 1012.5
00 20.09 С 4 7000 м 9/9
[]
+21.0 +16.0 73 +25 +25 комфорт 1017.9 1000.3
03 20.09 С 4 15 км 9/9
[]
+25.3 +14.4 51 +28 +29 жарко 1018.1 1014.0
06 20.09 С 4 30 км 9/9
[]
+27.1 +11.2 37 +28 +29 жарко 1016.3 998.8 +20.0
09 20.09 С 2 22 км 9/9
[]
+24.9 +12.8 47 +27 +27 жарко 1016.2 1012.1
12 20.09 СЗ 3 17 км н/о +22.7 +14.3 59 +26 +26 жарко 1016.4 998.7
15 20.09 С 3 11 км н/о +22.1 +15.0 64 +26 +26 душно 1017.1 1013.0
18 20.09 С 3 7000 м мгла ?/? +21.9 +15.3 66 +25 +25 комфорт 1016.7 999.2 +27.8
21 20.09 С 3 27 км н/о +22.1 +14.5 62 +25 +25 комфорт 1016.6 1012.5
00 21.09 С 5 24 км 8/8
[]
+22.6 +15.0 62 +26 +27 жарко 1018.0 1000.4
03 21.09 С 5 30 км 8/8 600 м
[]
+26.2 +13.3 45 +28 +30 жарко 1017.9 1013.8
06 21.09 С 2 28 км 8/8 600 м
[]
+27.9 +12.3 38 +29 +32 жарко 1016.4 998.9 +21.6
09 21.09 СВ 3 29 км 8/8 600 м
[]
+27.5 +12.7 40 +29 +29 жарко 1016.0 1012.0
12 21.09 СВ 5 22 км 9/9
[]
+25.3 +12.9 46 +27 +27 жарко 1017.1 999.6
15 21.09 С 5 16 км н/о +24.2 +12.5 48 +26 +26 жарко 1018.7 1014.6
18 21.09 С 5 19 км н/о +22.5 +12.2 52 +25 +25 комфорт 1018.5 1001.0 +29.3
21 21.09 С 5 14 км н/о +21.5 +12.1 55 +24 +24 комфорт 1019.1 1015.0

 

Местоположение метеостанции Чандэ (Хунань, Китай): широта 29.05 долгота 111.68 высота над уровнем моря 35 м.

В архиве по умолчанию представлена погода в Чандэ за последнюю неделю. Архивные данные за месяц целиком и за предыдущие месяцы, начиная с января 2011 года, Вы можете получить, выбрав интересующий диапазон дат из раскрывающегося списка и нажав кнопку "Ввод!".


*Определитесь, кто Вы:
робот инопланетянин человек

Внимание! Время в таблицах - всемирное. Для получения местного времени необходимо прибавить поправку, которая равна 8 ч.

Смотрите также архив погоды в соседних городах и на ближайших метеорологических станциях:

Погода в Юаньлине (Хунань, Китай) (140 км)
Погода в Юэяне (Хунань, Китай) (141 км)
Погода в Чанше (Хунань, Китай) (147 км)
Погода в Янлинге (Шэньси, Китай) (150 км)
Погода в Санчжи (Хунань, Китай) (153 км)
Погода в Ичане (Хубэй, Китай) (187 км)
Погода в Шаояне (Хунань, Китай) (204 км)
Погода в Намвьете (Хунань, Китай) (219 км)
Погода в Жонсяне (Хубэй, Китай) (251 км)
Погода в Эньши (Хубэй, Китай) (254 км)

Пояснения к столбцам:

Ветер - указаны скорость ветра в м/с - средняя за 10 мин, порывы в срок и между сроками (в фигурных скобках) и направление, откуда дует ветер: С - северный, СВ - северо-восточный, В - восточный, ЮВ - юго-восточный, Ю - южный, ЮЗ - юго-западный, З - западный, СЗ - северо-западный.
Видимость - горизонтальная дальность видимости в метрах или километрах. При видимости от 1 до 10 км при отсутствии осадков обычно наблюдается дымка, при ухудшении видимости до 1 км и менее - туман. В сухую погоду видимость может ухудшаться дымом, пылью или мглою.
Явления - указаны атмосферные явления, наблюдавшиеся в срок или в последний час перед сроком; фигурными скобками обозначены явления, наблюдавшиеся между сроками (за 1-3 часа до срока); квадратными скобками обозначены град или гололедные отложения с указанием их диаметра в мм.
Облачность - указаны через наклонную черту общая и нижняя облачность в баллах и высота нижней границы облаков в метрах; квадратными скобками обозначены формы облаков: Ci - перистые, Cs - перисто-слоистые, Cc - перисто-кучевые, Ac - высококучевые, As - высокослоистые, Sc - слоисто-кучевые, Ns - слоисто-дождевые, Cu - кучевые, Cb - кучево-дождевые. Подробнее классификацию облаков см. в Атласе облаков (PDF).
T - Температура воздуха - температура, измеренная на высоте 2 м над землей.
Td - Температура точки росы - температура, при понижении до которой содержащийся в воздухе водяной пар достигнет насыщения.
f - Относительная влажность воздуха - влажноcть воздуха, измеренная на высоте 2 м над землей.
Te - Эффективная температура - температура, которую ощущает одетый по сезону человек в тени. Характеристика душности погоды. При расчете учитывается влияние влажности воздуха и скорости ветра на теплоощущения человека.
Tes - Эффективная температура на солнце - температура, которую ощущает человек, с поправкой на солнечный нагрев. Характеристика знойности погоды. Зависит от высоты солнца над горизонтом, облачности и скорости ветра. Ночью, в пасмурную погоду, а также при ветре 12 м/с и более поправка равна нулю.
P - Атмосферное давление - приведенное к уровню моря атмосферное давление.
Po - Атмосферное давление - измеренное на уровне метеостанции атмосферное давление.
Tmin - Минимальная температура - минимум температуры воздуха на высоте 2 м над землей.
Tmax - Максимальная температура - максимум температуры воздуха на высоте 2 м над землей.
R - Количество осадков - Количество выпавших осадков за период времени, мм. При наведении курсора мыши на число - период времени, за который выпало указанное количество осадков.
R24 - Количество осадков - Количество выпавших осадков за 24 часа, мм.
S - Снежный покров - Высота снежного покрова, см. При наведении курсора мыши на число - состояние снежного покрова и степень покрытия местности в баллах.